User: anonymous   Login
Location: Newark
(39.9581°N, 97.2014°W)
Time: 05:34:46
(UTC+00:00)
Language:

A-11 Canister half - Orbit

View from above orbital plane
View from above orbital plane
View from above satellite
View from above satellite

Ground track
Ground track

The orbit data is extracted from the following two-line orbital elements,

1    53U 60009E   20055.55538567 -.00000136  00000-0 -49510-3 0  9993
2    53  47.2738 250.2305 0100168 104.3197 256.8737 12.17240590654698
Epoch (UTC): 24 February 2020 13:19:45
Eccentricity: 0.0100168
inclination: 47.2738°
perigee height: 1524 km
apogee height: 1684 km
right ascension of ascending node: 250.2305°
argument of perigee: 104.3197°
revolutions per day: 12.17240590
mean anomaly at epoch: 256.8737°
orbit number at epoch: 65469

The dashed part of the orbit path shows where the satellite is in the earth's shadow,  

DLR